Probability
16 45 77 81 87 84 87 90 90 84 90 90 90 90 87 87 84 87 84 87 87 84 81 77 74 65 68 71 74 65 61 55 55 65 65 71 74 77 65 68 48 48 55
19 55 81 84 90 90 87 87 90 87 90 90 94 94 94 84 87 84 81 77 84 84 81 81 71 65 65 65 68 68 65 58 58 55 55 55 61 52 52 45 39 48 52
29 58 77 84 84 90 87 87 90 87 87 90 90 94 90 90 94 87 77 77 77 77 74 65 65 65 68 65 61 65 68 61 58 61 58 39 48 48 52 55 42 55 58
32 48 68 87 87 84 84 87 87 87 87 87 87 87 87 87 87 84 84 84 77 65 61 65 61 61 68 68 71 65 65 65 58 55 19 35 32 45 55 58 55 52 48
35 52 77 94 87 84 84 87 87 84 84 84 84 87 87 84 81 84 90 87 81 68 58 55 55 55 58 55 68 61 61 61 61 19 13 23 42 48 55 61 45 42 58
39 58 77 90 90 87 81 87 84 81 84 84 84 87 90 87 87 90 90 90 74 71 61 65 65 61 55 55 58 58 58 61 26 19 16 23 32 65 55 55 48 48 61
39 58 71 94 90 90 90 87 84 84 84 87 87 87 90 94 94 90 94 87 68 61 61 61 58 58 58 61 61 58 55 45 19 6 16 16 35 61 58 58 61 55 52
52 55 71 90 90 90 90 90 87 84 84 87 87 87 90 94 90 87 87 84 71 65 65 55 55 61 61 61 55 52 52 45 16 10 10 26 42 65 61 65 65 61 55
48 48 58 71 84 87 90 90 84 77 87 87 81 84 87 90 84 90 94 84 77 74 65 65 55 55 58 55 61 58 52 58 16 10 13 23 42 55 58 61 48 55 65
35 42 42 52 52 61 74 90 84 84 84 87 87 87 81 94 84 87 84 90 71 74 68 61 58 58 65 61 61 65 52 48 13 6 23 29 45 55 55 61 48 48 58
26 32 35 26 29 39 55 71 74 74 77 81 74 74 74 23 35 52 71 87 74 71 65 65 68 68 61 55 68 61 45 23 13 10 19 42 55 58 61 55 65 58 52
16 23 23 19 13 16 45 48 35 35 26 26 19 23 10 10 13 48 68 74 68 71 68 65 65 58 52 42 48 45 32 23 10 13 19 52 61 61 65 58 65 55 52
10 16 13 16 6 10 3 16 10 13 6 6 10 6 6 6 6 6 13 23 19 32 29 35 35 29 23 13 16 16 13 13 16 19 23 52 68 61 65 58 61 61 45
3 13 16 13 10 6 3 3 3 10 10 6 6 3 6 6 6 6 10 6 3 6 6 6 10 10 16 13 10 10 10 13 19 26 26 52 71 58 61 68 58 58 58
3 6 6 10 10 6 3 3 13 6 13 6 6 6 3 3 3 3 3 3 3 3 3 10 6 10 13 16 13 13 10 13 19 16 23 42 61 71 65 61 55 58 58
10 6 10 6 6 0 3 3 6 3 6 6 6 6 6 6 3 3 3 3 3 3 3 3 3 6 6 6 6 13 16 10 16 13 19 26 48 61 68 58 48 58 55
10 16 16 10 10 3 3 3 6 6 3 3 3 3 6 6 6 6 3 3 3 3 3 3 3 3 3 3 6 6 6 10 13 13 16 23 26 45 61 61 45 52 45
6 10 10 26 19 10 13 10 13 13 10 13 3 6 10 10 6 3 3 3 3 3 3 3 3 3 3 3 3 6 6 6 10 10 13 13 13 13 42 48 55 48 45
6 3 10 19 13 13 16 16 10 10 16 10 10 6 10 10 6 0 0 3 3 6 6 6 6 3 3 3 6 10 10 6 6 6 3 3 6 6 10 16 45 45 42
6 10 13 16 13 13 10 6 6 10 13 13 10 6 6 16 13 10 6 6 6 6 3 3 3 3 3 3 3 6 3 0 0 3 3 3 3 3 6 6 16 39 45
16 13 10 16 16 13 13 16 16 13 16 16 23 19 16 19 16 10 6 6 3 3 3 0 0 0 0 0 0 0 0 0 0 0 0 0 3 3 6 3 6 6 10
19 16 13 13 13 13 13 10 13 13 13 13 16 16 19 19 13 13 6 6 3 3 0 0 0 0 0 0 0 0 0 0 0 0 0 0 0 3 3 3 0 0 0
19 19 19 10 10 6 13 10 16 13 16 13 19 16 13 16 16 16 10 6 3 0 0 0 0 0 0 0 0 0 0 0 0 0 0 0 0 0 0 0 0 0 0
26 19 13 6 10 6 10 10 13 23 23 19 16 10 13 19 23 19 13 10 6 0 0 3 0 0 0 0 0 0 0 0 0 0 0 0 0 0 0 0 0 0 0
23 23 13 10 6 6 13 10 13 23 19 19 13 10 13 10 13 32 23 13 6 3 3 6 10 3 0 0 0 0 0 0 0 0 0 0 0 0 3 0 0 0 0
26 19 16 6 10 13 19 23 23 23 19 16 19 19 16 13 19 26 32 19 16 13 10 10 6 6 10 6 6 6 6 3 3 0 0 0 0 0 0 0 0 0 0
Height
5880 5879 5879 5878 5877 5877 5877 5877 5877 5877 5877 5877 5877 5877 5877 5877 5877 5877 5878 5878 5878 5879 5879 5880 5880 5881 5881 5882 5882 5882 5882 5882 5883 5883 5884 5884 5884 5884 5885 5885 5886 5886 5886
5882 5881 5880 5879 5879 5879 5878 5878 5878 5878 5878 5878 5878 5878 5878 5878 5879 5879 5879 5879 5879 5880 5880 5880 5881 5882 5882 5882 5883 5883 5883 5883 5884 5884 5884 5884 5885 5885 5885 5886 5886 5886 5886
5883 5882 5882 5881 5880 5880 5880 5880 5880 5880 5880 5879 5879 5880 5879 5880 5880 5880 5880 5880 5881 5881 5881 5881 5882 5882 5883 5883 5883 5883 5883 5884 5884 5884 5884 5885 5885 5885 5886 5886 5886 5886 5886
5884 5884 5883 5882 5882 5882 5881 5881 5881 5881 5881 5881 5881 5881 5881 5881 5881 5881 5881 5881 5881 5882 5882 5882 5882 5883 5883 5883 5884 5884 5884 5885 5885 5885 5885 5885 5886 5886 5886 5886 5886 5886 5887
5886 5885 5884 5884 5883 5883 5883 5882 5882 5882 5882 5882 5882 5882 5882 5882 5882 5882 5882 5882 5882 5882 5883 5883 5883 5883 5883 5884 5884 5884 5885 5885 5885 5885 5886 5886 5886 5886 5886 5886 5887 5887 5887
5887 5886 5886 5885 5885 5884 5884 5884 5883 5883 5883 5883 5883 5883 5883 5883 5883 5883 5883 5883 5883 5883 5883 5884 5884 5884 5884 5884 5885 5885 5885 5886 5886 5886 5886 5886 5887 5887 5887 5887 5887 5887 5888
5889 5888 5887 5886 5886 5886 5885 5885 5884 5884 5884 5884 5884 5884 5884 5884 5884 5884 5884 5884 5884 5884 5884 5884 5884 5884 5885 5885 5885 5886 5886 5886 5886 5887 5887 5887 5887 5888 5888 5888 5888 5888 5888
5890 5889 5888 5888 5887 5887 5886 5886 5886 5885 5885 5884 5884 5884 5884 5885 5885 5885 5885 5885 5885 5885 5885 5885 5885 5885 5885 5885 5886 5886 5886 5887 5887 5887 5887 5888 5888 5888 5888 5888 5888 5889 5889
5892 5891 5890 5889 5889 5888 5888 5887 5887 5886 5886 5885 5885 5885 5885 5885 5885 5885 5885 5885 5885 5885 5885 5885 5886 5886 5886 5886 5886 5886 5887 5887 5887 5887 5888 5888 5888 5889 5889 5889 5889 5889 5889
5893 5893 5892 5891 5890 5890 5889 5888 5888 5887 5887 5886 5886 5886 5886 5886 5886 5885 5885 5886 5886 5886 5886 5886 5886 5886 5886 5887 5887 5887 5887 5888 5888 5888 5888 5888 5889 5889 5889 5889 5889 5889 5889
5895 5894 5893 5893 5892 5891 5890 5889 5889 5888 5887 5887 5887 5887 5887 5886 5886 5886 5885 5886 5886 5886 5886 5886 5886 5886 5887 5887 5887 5887 5887 5888 5888 5888 5888 5888 5889 5889 5889 5889 5889 5889 5890
5897 5896 5895 5894 5893 5892 5891 5890 5890 5889 5888 5888 5888 5887 5887 5886 5886 5886 5886 5886 5886 5886 5886 5887 5887 5887 5887 5887 5887 5888 5888 5888 5888 5888 5888 5888 5889 5889 5889 5889 5889 5890 5890
5898 5897 5896 5895 5894 5893 5892 5891 5891 5890 5889 5889 5888 5888 5888 5887 5886 5886 5885 5886 5886 5886 5886 5887 5887 5887 5887 5887 5888 5888 5888 5888 5888 5888 5888 5888 5889 5889 5889 5889 5889 5889 5890
5899 5898 5897 5896 5895 5895 5894 5893 5892 5891 5890 5889 5888 5888 5888 5887 5887 5886 5886 5886 5886 5886 5887 5887 5887 5887 5887 5887 5887 5888 5888 5888 5888 5888 5888 5888 5888 5888 5889 5889 5889 5889 5889
5900 5899 5899 5898 5897 5896 5895 5894 5893 5892 5891 5890 5888 5888 5888 5888 5888 5887 5887 5887 5887 5887 5887 5887 5887 5887 5887 5887 5887 5887 5887 5887 5888 5888 5888 5888 5888 5888 5888 5888 5889 5889 5889
5901 5901 5900 5899 5899 5897 5896 5895 5894 5893 5892 5891 5890 5889 5889 5888 5888 5887 5887 5887 5887 5887 5887 5887 5887 5887 5887 5887 5887 5887 5887 5887 5887 5887 5887 5887 5888 5888 5888 5888 5888 5888 5888
5903 5902 5901 5901 5900 5899 5898 5897 5895 5894 5893 5892 5891 5890 5889 5889 5888 5888 5887 5887 5887 5887 5887 5887 5887 5887 5887 5887 5887 5887 5887 5887 5887 5887 5887 5887 5887 5887 5887 5887 5887 5887 5887
5905 5904 5903 5902 5901 5900 5899 5898 5896 5895 5894 5893 5892 5891 5890 5889 5888 5888 5888 5887 5887 5887 5887 5887 5887 5887 5887 5887 5887 5887 5886 5886 5886 5886 5886 5886 5887 5887 5886 5886 5886 5886 5886
5906 5905 5904 5904 5902 5901 5900 5898 5897 5896 5894 5893 5892 5891 5890 5890 5889 5888 5888 5887 5887 5887 5886 5886 5886 5886 5886 5886 5886 5886 5886 5886 5886 5886 5886 5886 5886 5886 5885 5885 5885 5885 5885
5907 5906 5906 5905 5904 5902 5901 5899 5898 5897 5895 5894 5893 5892 5891 5890 5889 5889 5888 5887 5887 5886 5886 5885 5885 5885 5885 5885 5885 5885 5885 5885 5885 5885 5885 5884 5884 5884 5884 5884 5883 5884 5884
5908 5907 5907 5905 5904 5903 5902 5900 5899 5898 5896 5895 5894 5893 5892 5890 5889 5889 5888 5887 5886 5885 5884 5884 5884 5884 5884 5884 5884 5884 5884 5884 5884 5883 5883 5883 5883 5883 5883 5882 5882 5882 5882
5909 5908 5907 5906 5905 5904 5903 5901 5900 5899 5898 5896 5895 5894 5892 5891 5890 5888 5888 5886 5885 5884 5884 5883 5883 5883 5882 5883 5883 5883 5883 5883 5882 5882 5882 5881 5881 5881 5881 5880 5880 5880 5880
5909 5909 5908 5907 5906 5905 5904 5903 5901 5900 5898 5897 5896 5894 5893 5891 5889 5888 5887 5886 5885 5883 5883 5882 5882 5882 5881 5881 5881 5882 5882 5882 5881 5881 5880 5880 5879 5879 5879 5879 5878 5878 5878
5910 5909 5908 5907 5906 5905 5904 5903 5902 5901 5899 5898 5896 5895 5893 5891 5890 5888 5887 5885 5884 5883 5882 5881 5881 5880 5880 5880 5880 5880 5880 5880 5880 5879 5879 5878 5877 5877 5877 5877 5876 5876 5876
5910 5909 5908 5908 5907 5906 5904 5903 5902 5901 5900 5898 5897 5895 5893 5892 5889 5888 5886 5885 5883 5882 5881 5880 5880 5879 5879 5879 5879 5879 5878 5878 5878 5877 5877 5876 5875 5875 5875 5875 5874 5874 5873
5910 5909 5908 5908 5907 5906 5904 5903 5902 5901 5900 5898 5897 5895 5893 5891 5889 5887 5885 5884 5882 5881 5880 5880 5879 5878 5877 5877 5877 5877 5877 5876 5876 5875 5874 5874 5873 5873 5872 5872 5872 5872 5871
Wind_Speed
13 12 13 13 13 13 13 13 13 12 12 12 12 11 11 10 10 9 9 8 7 7 7 7 7 7 6 6 6 6 6 5 5 5 5 5 5 4 4 3 3 3 4
12 12 12 12 12 13 13 13 12 11 11 11 11 10 10 10 9 9 9 8 7 6 6 6 6 6 5 5 5 5 5 5 5 5 5 5 5 4 4 4 3 3 3
11 11 12 12 12 12 12 12 11 11 11 10 10 10 9 9 8 8 8 7 7 6 5 5 5 5 5 5 4 4 5 4 5 5 5 5 5 5 4 4 4 3 4
10 11 11 12 12 11 11 11 11 11 10 10 10 9 9 9 8 8 7 7 7 6 6 5 5 5 4 4 4 4 5 4 5 4 4 5 5 5 5 4 4 4 4
10 11 11 11 11 11 10 11 11 10 10 10 9 8 8 8 8 7 7 7 7 7 6 6 5 4 4 4 4 4 4 4 4 4 5 5 5 4 5 4 4 4 5
10 10 10 10 10 10 10 10 10 10 10 9 8 7 7 7 7 6 7 7 7 6 6 5 5 4 4 3 3 3 4 4 4 4 5 5 4 4 4 5 5 5 5
10 10 10 10 10 10 10 10 9 9 9 8 7 7 6 6 6 5 5 6 6 5 5 5 5 4 4 3 3 4 3 3 3 4 4 4 4 4 4 5 4 4 4
10 10 10 9 10 10 10 10 9 9 8 7 7 6 5 5 5 5 5 5 5 5 4 4 4 5 4 4 4 3 3 3 3 4 4 4 3 3 4 4 4 4 4
10 10 9 9 9 9 9 9 9 8 8 7 6 6 6 5 5 5 5 4 4 4 4 4 4 4 3 3 3 3 2 2 3 3 3 3 3 2 2 3 3 3 3
9 9 9 9 8 9 9 9 9 8 8 7 6 6 5 5 5 4 4 4 4 4 4 4 4 3 3 3 2 2 3 2 2 2 2 2 2 2 2 2 2 2 2
9 9 9 9 8 9 9 9 8 8 7 6 6 5 5 4 4 4 3 3 3 4 4 4 3 2 2 2 2 2 2 2 1 1 1 2 1 1 1 0 1 1 1
9 9 9 9 9 8 8 9 8 7 6 6 5 4 4 4 3 2 3 2 3 3 3 3 2 2 1 2 1 1 1 2 2 1 1 0 1 1 1 0 0 0 0
9 9 9 9 8 8 9 9 8 7 7 5 5 3 4 4 3 2 2 2 2 3 2 2 2 1 1 1 1 1 1 1 1 1 1 0 0 1 1 1 1 1 1
8 9 9 9 9 8 9 9 8 8 7 7 5 3 3 4 4 3 3 2 2 2 2 2 1 1 1 1 0 1 1 1 1 1 1 1 1 1 1 2 1 1 2
8 8 9 9 9 9 8 8 8 7 7 7 6 4 4 5 5 4 4 2 2 1 1 2 2 2 1 1 1 1 1 1 1 2 1 1 2 2 2 3 3 2 2
9 9 9 9 9 9 9 9 8 8 7 7 7 5 4 5 6 5 4 3 2 2 1 1 2 2 2 1 1 1 1 2 2 2 2 2 2 2 2 2 3 3 3
9 9 9 9 8 9 9 9 9 8 8 7 7 6 5 5 5 5 4 3 3 2 2 2 1 2 2 2 2 2 2 3 3 3 3 2 3 3 3 3 3 4 5
8 8 9 9 9 9 10 11 10 9 8 7 7 6 6 6 6 5 4 4 4 4 3 3 3 3 3 3 3 3 3 4 4 4 3 3 3 3 4 4 5 5 6
8 8 8 8 9 9 10 11 11 10 9 8 8 8 7 7 7 6 4 4 4 4 4 4 4 3 3 3 3 3 4 4 4 4 4 4 5 5 5 5 6 7 7
7 7 7 8 8 9 10 11 11 11 10 9 9 8 7 7 7 6 5 5 4 4 4 4 4 4 4 4 4 4 4 5 5 5 6 6 6 6 6 6 7 7 8
7 6 7 7 7 8 9 10 11 10 10 9 9 8 8 8 7 6 6 6 5 5 5 5 5 5 5 5 5 5 5 5 5 5 6 6 7 7 7 8 8 8 8
6 6 6 6 7 8 8 9 10 9 9 9 9 9 9 9 8 7 6 6 6 5 6 6 6 5 5 5 6 6 6 6 6 6 6 7 7 8 8 8 8 8 9
6 6 7 7 7 7 8 8 9 9 9 10 9 9 9 10 9 9 7 7 7 6 6 6 5 4 4 5 5 6 7 6 6 7 7 8 8 8 8 8 9 9 10
6 6 7 7 7 7 7 8 8 9 9 10 10 10 10 10 10 10 8 8 7 7 7 6 6 5 6 6 6 7 7 8 8 8 8 9 9 9 9 9 9 10 10
6 6 7 7 7 7 7 7 8 9 9 10 11 11 12 11 12 11 9 8 8 8 8 7 7 6 6 7 7 7 8 9 8 8 9 9 9 9 9 9 10 10 10
6 6 7 7 7 7 7 8 8 9 10 10 12 12 13 13 12 11 10 9 8 8 8 8 7 7 7 7 7 8 8 9 9 9 9 10 10 10 10 10 10 10 11
Wind_Direction
75 74 72 70 69 68 66 66 66 66 65 65 67 70 69 73 75 76 80 83 84 90 95 98 102 103 102 107 112 113 109 104 102 101 102 109 114 115 114 115 119 116 127
69 69 68 67 67 66 64 65 66 66 65 64 64 67 68 69 69 71 78 81 84 86 90 100 107 107 105 104 105 108 107 106 103 103 100 101 105 106 110 108 106 110 122
67 67 67 66 66 65 65 64 64 64 64 65 64 66 67 66 65 70 74 79 83 83 91 102 105 105 102 104 104 105 100 100 99 96 95 94 98 98 99 98 96 112 124
66 65 66 67 66 64 64 63 63 62 62 63 64 65 65 64 67 69 71 75 80 87 93 100 106 103 105 108 102 98 97 95 98 98 92 93 96 94 90 96 100 105 115
64 64 65 65 63 61 61 61 60 61 60 61 63 65 64 63 64 68 70 69 76 79 84 93 95 104 110 110 105 98 97 100 100 95 89 91 93 93 86 90 102 100 103
63 64 65 62 60 60 58 59 58 57 55 56 58 60 62 62 61 67 73 73 77 76 79 88 91 101 111 107 103 102 99 100 90 95 88 89 91 91 86 87 95 99 100
61 61 61 59 57 58 55 54 53 54 50 48 51 56 61 63 61 63 67 73 74 70 73 80 87 97 108 102 92 95 91 84 85 92 87 83 85 86 83 85 89 96 93
59 60 59 58 54 55 53 52 51 50 48 45 45 52 57 61 59 59 63 72 68 63 70 75 85 93 95 100 92 84 85 78 83 86 88 85 82 81 82 82 85 88 89
59 59 57 53 52 50 50 51 46 46 43 43 48 53 56 58 57 58 60 66 61 61 67 67 73 82 81 97 99 91 91 81 80 83 86 83 73 77 72 61 68 72 84
56 54 50 48 47 44 45 48 44 43 41 42 51 56 53 51 51 53 60 52 59 61 60 63 72 66 66 74 79 81 89 71 74 72 81 73 60 60 62 57 59 67 81
54 52 49 48 45 41 45 47 43 40 39 43 54 53 49 41 42 49 46 40 47 55 58 62 61 62 61 61 65 80 62 56 74 69 72 57 49 40 46 37 45 76 97
51 49 49 42 41 43 47 46 40 42 42 49 54 51 42 38 38 37 32 35 45 58 59 59 58 63 49 48 58 48 43 51 50 40 20 44 35 17 339 337 195 216 180
49 47 45 44 46 46 46 44 43 45 42 47 52 48 37 28 32 42 38 34 54 60 64 63 56 50 46 41 33 24 28 23 46 31 18 28 296 272 254 227 230 233 227
48 48 49 50 50 49 49 44 38 41 41 38 31 40 38 35 41 43 29 40 47 65 70 55 28 11 3 339 34 46 3 2 12 358 332 256 289 300 268 251 254 242 244
45 45 48 54 56 51 45 37 28 30 35 37 43 42 39 23 21 24 29 32 19 3 14 14 15 358 339 319 340 348 319 334 323 316 326 296 295 289 278 265 269 269 261
48 45 48 51 52 47 39 34 27 29 34 32 32 30 22 16 18 14 12 15 2 343 322 337 350 344 330 318 311 319 306 292 297 303 303 306 305 292 287 286 274 268 277
49 47 47 46 45 39 32 28 23 23 29 31 30 24 14 6 8 5 358 358 350 342 334 314 304 299 311 301 289 288 298 286 290 300 302 298 303 303 295 287 279 274 278
49 45 44 43 39 34 30 26 20 19 24 26 23 14 5 0 1 356 347 344 338 333 327 308 290 291 295 286 285 290 296 287 290 286 284 284 288 293 290 286 277 273 274
44 41 40 38 36 32 28 25 23 23 25 21 16 12 6 357 354 351 342 334 327 327 319 307 293 299 298 287 284 291 293 288 285 276 278 281 282 284 286 289 278 271 271
39 37 34 34 30 26 25 24 26 29 29 26 21 14 4 356 354 357 353 339 325 323 315 309 295 287 283 288 286 284 286 292 280 272 277 279 279 281 285 286 281 280 277
30 30 27 27 23 20 22 22 24 26 26 26 23 18 10 2 358 355 352 341 329 321 316 306 293 282 277 279 281 281 281 283 284 278 277 278 280 283 285 285 282 279 278
24 20 17 21 19 20 20 19 20 21 18 16 17 15 9 2 359 356 346 339 329 319 317 312 301 284 284 274 275 277 279 278 278 282 280 279 282 285 285 286 288 283 279
15 10 10 15 15 17 17 17 17 16 11 8 7 5 2 359 354 347 338 335 327 318 314 308 299 288 279 281 279 285 279 278 281 283 283 283 284 286 285 282 283 283 283
6 3 4 11 10 10 10 11 10 10 6 3 3 0 357 355 348 340 336 332 332 321 316 309 305 292 282 278 278 280 280 281 286 287 287 285 283 285 284 284 284 284 284
5 3 7 9 7 7 4 2 3 3 1 358 356 352 348 346 345 342 337 334 331 326 316 310 308 297 291 281 276 277 282 284 287 290 294 293 292 290 287 286 285 285 285
4 4 0 0 0 359 358 358 355 354 354 353 351 349 345 342 340 338 332 327 323 322 314 308 305 296 292 288 278 280 285 287 290 290 291 291 294 294 290 286 286 288 288